Back to catalog

STARLINK-32550

AliveCommunicationsVLEO
NORAD 62131·PAYLOAD·🇺🇸 United States

Launched Nov 27, 2024 from Cape Canaveral Space Force Station

Loading…

Next Passes (next 24 hours)

TLE

FreshSource: CelesTrak SupGP

Epoch: Sep 15, 2026, 02:13 UTC

1 62131C 24222T   26258.09284722  .00025120  00000+0  90996-3 0  2585
2 62131  43.0008 146.7799 0001489 277.0587  54.8825 15.27561708    16

Track STARLINK-32550 in real time with AllMySat

Download on the App Store